When you browse on this site, cookies collect data to enhance your experience and personalize the content and advertising you see.
Visit our Privacy Policy to learn more. By continuing to use the site, you agree to this use of cookies and data.
  • En España
  • Lista de países
  • Para 7 días
  • Temperatura del agua
  • El tiempo en el mapa
  • Informadores
  • user-avatar
    Iniciar sesión

    Tiempo cada hora Perugia

    Hoy, 21 Septiembre, Sábado

    Tiempo Temperatura Precipitaciones Viento Presión Humedad
    00:00 +11°C° 0 mm 1 mps 733 mmHg 68%
    01:00 +11°C° 0 mm 1 mps 734 mmHg 69%
    02:00 +11°C° 0 mm 1 mps 733 mmHg 70%
    03:00 +11°C° 0 mm 1 mps 733 mmHg 71%
    04:00 +11°C° 0 mm 1 mps 733 mmHg 72%
    05:00 +11°C° 0 mm 1 mps 733 mmHg 71%
    06:00 +11°C° 0 mm 1 mps 733 mmHg 70%
    07:00 +12°C° 0 mm 1 mps 733 mmHg 69%
    08:00 +15°C° 0 mm 1 mps 734 mmHg 60%
    09:00 +18°C° 0 mm 1 mps 734 mmHg 51%
    10:00 +20°C° 0 mm 2 mps 734 mmHg 42%
    11:00 +22°C° 0 mm 1 mps 734 mmHg 40%
    12:00 +24°C° 0 mm 1 mps 735 mmHg 37%
    13:00 +26°C° 0 mm 1 mps 735 mmHg 34%
    14:00 +26°C° 0 mm 1 mps 734 mmHg 35%
    15:00 +25°C° 0 mm 1 mps 734 mmHg 35%
    16:00 +25°C° 0 mm 1 mps 733 mmHg 36%
    17:00 +23°C° 0 mm 1 mps 733 mmHg 42%
    18:00 +21°C° 0 mm 1 mps 733 mmHg 49%
    19:00 +20°C° 0 mm 1 mps 733 mmHg 55%
    20:00 +19°C° 0 mm 1 mps 733 mmHg 60%
    21:00 +18°C° 0 mm 1 mps 733 mmHg 65%
    22:00 +16°C° 0 mm 1 mps 733 mmHg 71%
    23:00 +16°C° 0 mm 1 mps 732 mmHg 72%

    Mañana, 22 Septiembre, Domingo

    Tiempo Temperatura Precipitaciones Viento Presión Humedad
    00:00 +16°C° 0 mm 1 mps 732 mmHg 73%
    01:00 +16°C° 0 mm 1 mps 732 mmHg 75%
    02:00 +16°C° 1.4 mm 1 mps 732 mmHg 79%
    03:00 +16°C° 1.4 mm 2 mps 731 mmHg 84%
    04:00 +16°C° 1.4 mm 2 mps 731 mmHg 89%
    05:00 +16°C° 1.7 mm 2 mps 731 mmHg 90%
    06:00 +18°C° 1.7 mm 1 mps 731 mmHg 92%
    07:00 +18°C° 1.7 mm 1 mps 731 mmHg 93%
    08:00 +19°C° 0.9 mm 1 mps 731 mmHg 89%
    09:00 +19°C° 0.9 mm 2 mps 731 mmHg 85%
    10:00 +20°C° 0.9 mm 2 mps 731 mmHg 81%
    11:00 +20°C° 0.4 mm 2 mps 731 mmHg 81%
    12:00 +20°C° 0.4 mm 2 mps 731 mmHg 81%
    13:00 +21°C° 0.4 mm 2 mps 730 mmHg 82%
    14:00 +20°C° 1.3 mm 2 mps 730 mmHg 86%
    15:00 +19°C° 1.3 mm 2 mps 729 mmHg 90%
    16:00 +20°C° 1.3 mm 1 mps 729 mmHg 95%
    17:00 +20°C° 0.6 mm 1 mps 729 mmHg 95%
    18:00 +20°C° 0.6 mm 1 mps 729 mmHg 95%
    19:00 +19°C° 0.6 mm 1 mps 729 mmHg 95%
    20:00 +19°C° 0.7 mm 1 mps 728 mmHg 95%
    21:00 +19°C° 0.7 mm 1 mps 728 mmHg 94%
    22:00 +19°C° 0.7 mm 1 mps 728 mmHg 94%
    23:00 +19°C° 0.3 mm 1 mps 728 mmHg 94%

    Pasado mañana, 23 Septiembre, Lunes

    Tiempo Temperatura Precipitaciones Viento Presión Humedad
    00:00 +19°C° 0.3 mm 2 mps 728 mmHg 94%
    01:00 +19°C° 0.3 mm 2 mps 728 mmHg 93%
    02:00 +19°C° 0.3 mm 2 mps 728 mmHg 94%
    03:00 +18°C° 0.3 mm 2 mps 727 mmHg 95%
    04:00 +18°C° 0.3 mm 2 mps 727 mmHg 96%
    05:00 +18°C° 0.5 mm 2 mps 727 mmHg 96%
    06:00 +19°C° 0.5 mm 2 mps 727 mmHg 96%
    07:00 +19°C° 0.5 mm 2 mps 727 mmHg 96%
    08:00 +20°C° 0.7 mm 2 mps 727 mmHg 92%
    09:00 +21°C° 0.7 mm 2 mps 727 mmHg 88%
    10:00 +23°C° 0.7 mm 2 mps 727 mmHg 83%
    11:00 +24°C° 0.9 mm 2 mps 727 mmHg 77%
    12:00 +25°C° 0.9 mm 3 mps 727 mmHg 71%
    13:00 +26°C° 0.9 mm 3 mps 726 mmHg 65%
    14:00 +26°C° 1.4 mm 3 mps 726 mmHg 68%
    15:00 +25°C° 1.4 mm 2 mps 726 mmHg 71%
    16:00 +24°C° 1.4 mm 2 mps 725 mmHg 74%
    17:00 +23°C° 1 mm 2 mps 725 mmHg 78%
    18:00 +21°C° 1 mm 1 mps 725 mmHg 82%
    19:00 +18°C° 1 mm 0 mps 725 mmHg 86%
    20:00 +19°C° 0 mm 1 mps 725 mmHg 88%
    21:00 +19°C° 0 mm 1 mps 725 mmHg 90%
    22:00 +18°C° 0 mm 1 mps 726 mmHg 92%
    23:00 +18°C° 0 mm 1 mps 725 mmHg 92%

    24 Septiembre, Martes

    Tiempo Temperatura Precipitaciones Viento Presión Humedad
    00:00 +16°C° 0 mm 1 mps 725 mmHg 93%
    01:00 +16°C° 0 mm 1 mps 725 mmHg 94%
    02:00 +16°C° 0 mm 1 mps 725 mmHg 93%
    03:00 +16°C° 0 mm 1 mps 725 mmHg 93%
    04:00 +16°C° 0 mm 1 mps 725 mmHg 92%
    05:00 +16°C° 0 mm 1 mps 725 mmHg 91%
    06:00 +15°C° 0 mm 0 mps 725 mmHg 91%
    07:00 +15°C° 0 mm 0 mps 725 mmHg 90%
    08:00 +19°C° 0 mm 1 mps 726 mmHg 84%
    09:00 +20°C° 0 mm 1 mps 726 mmHg 78%
    10:00 +21°C° 0 mm 2 mps 727 mmHg 73%
    11:00 +21°C° 0 mm 2 mps 727 mmHg 68%
    12:00 +23°C° 0 mm 2 mps 727 mmHg 63%
    13:00 +24°C° 0 mm 2 mps 727 mmHg 59%
    14:00 +24°C° 0 mm 2 mps 726 mmHg 59%
    15:00 +24°C° 0 mm 2 mps 726 mmHg 59%
    16:00 +23°C° 0 mm 2 mps 726 mmHg 59%
    17:00 +22°C° 0 mm 1 mps 726 mmHg 65%
    18:00 +20°C° 0 mm 1 mps 726 mmHg 71%
    19:00 +19°C° 0 mm 1 mps 726 mmHg 77%
    20:00 +18°C° 0 mm 1 mps 726 mmHg 80%
    21:00 +16°C° 0 mm 1 mps 726 mmHg 82%
    22:00 +16°C° 0 mm 1 mps 726 mmHg 85%
    23:00 +15°C° 0 mm 1 mps 726 mmHg 87%

    25 Septiembre, Miércoles

    Tiempo Temperatura Precipitaciones Viento Presión Humedad
    00:00 +15°C° 0 mm 1 mps 726 mmHg 89%
    01:00 +14°C° 0 mm 0 mps 726 mmHg 90%
    02:00 +14°C° 0 mm 0 mps 725 mmHg 91%
    03:00 +14°C° 0 mm 1 mps 725 mmHg 92%
    04:00 +14°C° 0 mm 1 mps 725 mmHg 93%
    05:00 +15°C° 0 mm 1 mps 725 mmHg 92%
    06:00 +15°C° 0 mm 1 mps 725 mmHg 91%
    07:00 +15°C° 0 mm 1 mps 725 mmHg 89%
    08:00 +18°C° 0 mm 1 mps 725 mmHg 83%
    09:00 +18°C° 0 mm 2 mps 725 mmHg 77%
    10:00 +20°C° 0 mm 2 mps 726 mmHg 70%
    11:00 +21°C° 0 mm 3 mps 725 mmHg 64%
    12:00 +22°C° 0 mm 4 mps 725 mmHg 58%
    13:00 +25°C° 0 mm 5 mps 725 mmHg 52%
    14:00 +25°C° 0 mm 5 mps 725 mmHg 53%
    15:00 +23°C° 0 mm 5 mps 725 mmHg 53%
    16:00 +23°C° 0 mm 5 mps 725 mmHg 54%
    17:00 +21°C° 0 mm 4 mps 725 mmHg 59%
    18:00 +20°C° 0 mm 3 mps 725 mmHg 64%
    19:00 +18°C° 0 mm 2 mps 725 mmHg 69%
    20:00 +18°C° 0 mm 1 mps 725 mmHg 71%
    21:00 +18°C° 0 mm 1 mps 725 mmHg 73%
    22:00 +16°C° 0 mm 1 mps 725 mmHg 75%
    23:00 +16°C° 0 mm 1 mps 725 mmHg 75%

    26 Septiembre, Jueves

    Tiempo Temperatura Precipitaciones Viento Presión Humedad
    00:00 +16°C° 0 mm 1 mps 725 mmHg 75%
    01:00 +16°C° 0 mm 1 mps 725 mmHg 75%
    02:00 +15°C° 0 mm 0 mps 725 mmHg 75%
    03:00 +15°C° 0 mm 0 mps 725 mmHg 75%
    04:00 +15°C° 0 mm 0 mps 725 mmHg 76%
    05:00 +16°C° 0 mm 0 mps 726 mmHg 76%
    06:00 +16°C° 0 mm 0 mps 726 mmHg 77%
    07:00 +16°C° 0 mm 0 mps 726 mmHg 77%
    08:00 +20°C° 0 mm 1 mps 727 mmHg 73%
    09:00 +21°C° 0 mm 1 mps 727 mmHg 68%
    10:00 +22°C° 0 mm 1 mps 728 mmHg 63%
    11:00 +23°C° 0.1 mm 1 mps 728 mmHg 60%
    12:00 +24°C° 0.1 mm 1 mps 728 mmHg 57%
    13:00 +25°C° 0.1 mm 1 mps 728 mmHg 53%
    14:00 +25°C° 0.1 mm 1 mps 728 mmHg 54%
    15:00 +24°C° 0.1 mm 2 mps 728 mmHg 55%
    16:00 +24°C° 0.1 mm 2 mps 728 mmHg 55%
    17:00 +23°C° 0.1 mm 1 mps 728 mmHg 62%
    18:00 +21°C° 0.1 mm 1 mps 728 mmHg 70%
    19:00 +20°C° 0.1 mm 1 mps 728 mmHg 77%
    20:00 +19°C° 0 mm 1 mps 728 mmHg 79%
    21:00 +18°C° 0 mm 1 mps 728 mmHg 82%
    22:00 +16°C° 0 mm 0 mps 728 mmHg 84%
    23:00 +15°C° 0 mm 0 mps 728 mmHg 86%
    Mostrar más